Location: Haut Kerinec
(48.0623°N, 4.4081°W)
Time: 03:26:50
(UTC+00:00)

Cosmos 2026 Rocket - Pass Details

Date: 01 June 2020
Orbit: 939 x 1001 km, 82.9° (Epoch: 07 July)

Event Time Altitude Azimuth Distance (km) Brightness Sun altitude
Exits shadow 22:00:23 17° 164° (SSE) 2,255 5.3 -13.5°
Maximum altitude 22:05:08 55° 92° (E) 1,179 4.2 -13.9°
Drops below altitude 10° 22:11:19 10° 16° (NNE) 2,778 7.0 -14.4°
Sets 22:13:55 0° 13° (NNE) 3,735 7.8 -14.6°
